Humidity-temperature Sensor

Selected Measurement Type: Air Temperature

 
Air Temperature [°C]     6 entries per hour
Showing data from 6/9/2017 (00:00:00 Z) to 6/2/2017 (00:01:00 Z)
Previous Next [ Day | 3-Days | 7-Days ]
First Last
Prev [ Day | 3-Days | 7-Days ] Next
First Last

Start Time:     :
End Time:     :     
Time (in GMT) :00 :50 :40 :30 :20 :10
Previous Next [ Day | 3-Days | 7-Days ]
First Last
Prev [ Day | 3-Days | 7-Days ] Next
First Last


123 => good data
MM => data is determined as missing
-- => data not received/configured
Back to Top Back to Top
6/9/2017 00:00 to 23:10 26.96 26.87 26.88 26.82 26.79 27.01
6/8/2017 23:00 to 22:10 26.82 26.95 26.95 26.94 26.90 26.93
6/8/2017 22:00 to 21:10 27.07 27.02 26.97 27.00 27.08 27.01
6/8/2017 21:00 to 20:10 27.14 27.08 27.14 27.09 27.08 27.07
6/8/2017 20:00 to 19:10 27.08 27.07 27.03 27.03 27.07 27.19
6/8/2017 19:00 to 18:10 27.01 27.12 27.21 27.14 27.09 27.06
6/8/2017 18:00 to 17:10 27.02 26.99 27.07 27.06 27.07 27.05
6/8/2017 17:00 to 16:10 26.98 27.07 27.04 27.02 26.96 27.14
6/8/2017 16:00 to 15:10 26.98 27.04 26.99 26.90 26.99 27.02
6/8/2017 15:00 to 14:10 27.01 27.01 26.98 26.92 26.98 26.87
6/8/2017 14:00 to 13:10 26.89 26.88 26.94 26.88 26.83 26.94
6/8/2017 13:00 to 12:10 26.81 26.91 26.85 26.91 26.79 26.82
6/8/2017 12:00 to 11:10 26.83 26.87 26.74 26.73 26.67 26.64
6/8/2017 11:00 to 10:10 26.72 26.76 26.81 26.67 26.47 26.49
6/8/2017 10:00 to 9:10 26.83 26.79 26.85 26.95 26.93 26.85
6/8/2017 09:00 to 8:10 26.83 26.83 26.90 26.88 26.84 26.83
6/8/2017 08:00 to 7:10 26.87 26.90 26.87 27.04 26.99 26.95
6/8/2017 07:00 to 6:10 26.99 27.05 27.01 27.03 27.05 27.05
6/8/2017 06:00 to 5:10 -- -- -- -- -- --
6/8/2017 05:00 to 4:10 27.18 27.09 27.12 27.12 27.16 27.19
6/8/2017 04:00 to 3:10 27.12 27.12 27.15 27.12 27.26 27.15
6/8/2017 03:00 to 2:10 27.10 27.14 27.21 27.12 27.08 27.16
6/8/2017 02:00 to 1:10 27.16 27.12 27.17 27.16 27.07 27.14
6/8/2017 01:00 to 0:10 27.16 27.06 27.16 27.11 27.05 27.11
6/8/2017 00:00 to 23:10 27.12 27.16 27.09 27.26 27.12 27.16
6/7/2017 23:00 to 22:10 27.05 27.24 27.22 27.23 27.16 27.27
6/7/2017 22:00 to 21:10 27.22 27.31 27.31 27.26 27.34 27.32
6/7/2017 21:00 to 20:10 27.37 27.31 27.33 27.24 27.37 27.32
6/7/2017 20:00 to 19:10 27.24 27.30 27.31 27.35 27.37 27.31
6/7/2017 19:00 to 18:10 27.33 27.38 27.41 27.38 27.41 27.39
6/7/2017 18:00 to 17:10 27.31 27.33 27.33 27.37 27.36 27.42
6/7/2017 17:00 to 16:10 27.37 27.32 27.43 27.38 27.43 27.38
6/7/2017 16:00 to 15:10 27.45 27.34 27.40 27.42 27.41 27.35
6/7/2017 15:00 to 14:10 27.36 27.30 27.25 27.24 27.20 27.23
6/7/2017 14:00 to 13:10 27.21 27.23 27.22 27.21 27.40 27.14
6/7/2017 13:00 to 12:10 27.21 27.15 27.19 27.12 27.18 27.12
6/7/2017 12:00 to 11:10 27.08 27.09 27.11 27.22 27.14 27.12
6/7/2017 11:00 to 10:10 27.00 27.11 27.06 27.09 27.13 27.16
6/7/2017 10:00 to 9:10 27.14 27.17 27.16 27.20 27.16 27.16
6/7/2017 09:00 to 8:10 27.14 27.19 27.18 27.19 27.31 27.12
6/7/2017 08:00 to 7:10 27.19 27.20 27.22 27.20 27.23 27.22
6/7/2017 07:00 to 6:10 27.28 27.30 27.27 27.35 27.39 27.42
6/7/2017 06:00 to 5:10 27.45 27.49 27.59 27.56 27.47 27.57
6/7/2017 05:00 to 4:10 27.57 27.50 27.52 27.50 27.47 27.54
6/7/2017 04:00 to 3:10 27.54 27.53 27.51 27.53 27.52 27.45
6/7/2017 03:00 to 2:10 27.10 27.20 27.45 27.50 27.49 27.42
6/7/2017 02:00 to 1:10 27.40 27.52 27.38 27.37 27.35 27.36
6/7/2017 01:00 to 0:10 26.99 25.86 26.00 26.39 27.45 27.40
6/7/2017 00:00 to 23:10 -- -- -- -- -- --
6/6/2017 23:00 to 22:10 24.75 24.76 24.71 24.70 24.57 24.72
6/6/2017 22:00 to 21:10 24.57 24.79 24.80 25.08 25.49 25.21
6/6/2017 21:00 to 20:10 25.02 25.22 25.17 25.14 25.47 25.38
6/6/2017 20:00 to 19:10 26.24 26.44 25.81 26.11 27.48 27.25
6/6/2017 19:00 to 18:10 27.54 27.31 27.28 26.17 26.06 27.06
6/6/2017 18:00 to 17:10 27.06 26.99 26.49 26.26 26.09 25.72
6/6/2017 17:00 to 16:10 25.88 25.69 25.98 26.63 26.99 27.62
6/6/2017 16:00 to 15:10 27.53 27.24 27.06 27.22 27.10 27.12
6/6/2017 15:00 to 14:10 27.05 26.94 26.98 26.67 26.63 26.81
6/6/2017 14:00 to 13:10 26.68 26.65 26.59 26.72 25.95 25.66
6/6/2017 13:00 to 12:10 25.83 25.56 25.22 25.05 25.00 24.86
6/6/2017 12:00 to 11:10 24.88 24.77 25.00 25.18 25.22 24.59
6/6/2017 11:00 to 10:10 24.79 24.53 24.89 24.85 24.93 24.98
6/6/2017 10:00 to 9:10 25.21 25.14 25.27 25.11 25.41 25.58
6/6/2017 09:00 to 8:10 25.40 25.48 25.34 25.85 26.16 25.92
6/6/2017 08:00 to 7:10 26.38 26.40 26.35 26.34 26.54 26.55
6/6/2017 07:00 to 6:10 26.38 26.75 26.67 26.65 26.79 26.73
6/6/2017 06:00 to 5:10 26.84 26.96 26.79 26.87 26.99 26.88
6/6/2017 05:00 to 4:10 26.99 26.66 26.68 26.64 26.56 26.39
6/6/2017 04:00 to 3:10 26.13 26.35 26.42 26.22 25.73 25.90
6/6/2017 03:00 to 2:10 25.92 26.35 26.29 26.31 26.51 26.62
6/6/2017 02:00 to 1:10 26.70 26.72 26.67 26.73 26.79 26.70
6/6/2017 01:00 to 0:10 26.61 26.45 26.55 26.23 25.94 25.77
6/6/2017 00:00 to 23:10 25.99 26.13 26.56 26.84 27.19 27.23
6/5/2017 23:00 to 22:10 27.25 27.02 27.19 27.20 27.17 27.28
6/5/2017 22:00 to 21:10 27.28 27.28 27.09 26.78 26.33 26.37
6/5/2017 21:00 to 20:10 26.20 25.94 26.21 26.08 25.79 25.83
6/5/2017 20:00 to 19:10 26.31 25.95 26.04 26.05 26.92 26.92
6/5/2017 19:00 to 18:10 26.65 26.64 26.55 26.42 25.96 26.47
6/5/2017 18:00 to 17:10 26.41 26.17 26.05 25.85 25.28 25.69
6/5/2017 17:00 to 16:10 25.61 25.56 25.60 26.28 25.75 26.38
6/5/2017 16:00 to 15:10 26.16 26.88 27.57 28.01 27.39 27.73
6/5/2017 15:00 to 14:10 27.76 27.68 27.67 27.65 27.61 27.58
6/5/2017 14:00 to 13:10 27.66 27.64 27.65 27.53 27.55 27.61
6/5/2017 13:00 to 12:10 27.48 27.58 27.56 27.50 27.41 27.46
6/5/2017 12:00 to 11:10 -- -- -- -- -- --
6/5/2017 11:00 to 10:10 27.51 27.46 27.56 27.60 27.67 27.50
6/5/2017 10:00 to 9:10 27.28 27.58 27.49 27.54 27.48 27.55
6/5/2017 09:00 to 8:10 27.50 27.48 27.60 27.52 27.62 27.54
6/5/2017 08:00 to 7:10 27.62 27.52 27.54 27.54 27.61 27.53
6/5/2017 07:00 to 6:10 27.64 27.51 27.62 27.57 27.60 27.65
6/5/2017 06:00 to 5:10 27.56 27.61 27.71 27.71 27.70 27.69
6/5/2017 05:00 to 4:10 27.73 27.64 27.67 27.72 27.63 27.69
6/5/2017 04:00 to 3:10 27.70 27.62 27.61 27.62 27.75 27.71
6/5/2017 03:00 to 2:10 27.59 27.55 27.63 27.62 27.64 27.59
6/5/2017 02:00 to 1:10 27.52 27.49 27.63 27.49 27.56 27.44
6/5/2017 01:00 to 0:10 27.50 27.56 27.43 27.41 27.42 27.46
6/5/2017 00:00 to 23:10 27.35 27.37 27.35 27.38 27.47 27.35
6/4/2017 23:00 to 22:10 27.45 27.57 27.46 27.42 27.34 27.50
6/4/2017 22:00 to 21:10 27.65 27.57 27.53 27.49 27.45 27.38
6/4/2017 21:00 to 20:10 27.47 27.48 27.46 27.35 27.42 27.29
6/4/2017 20:00 to 19:10 27.52 27.54 27.50 27.45 27.55 27.38
6/4/2017 19:00 to 18:10 27.31 27.43 27.36 27.40 27.45 27.48
6/4/2017 18:00 to 17:10 27.35 27.41 27.39 27.42 27.41 27.65
6/4/2017 17:00 to 16:10 27.41 27.45 27.39 27.49 27.38 27.30
6/4/2017 16:00 to 15:10 27.45 27.54 27.50 27.39 27.44 27.35
6/4/2017 15:00 to 14:10 27.28 27.46 27.20 27.23 27.19 27.20
6/4/2017 14:00 to 13:10 27.29 27.20 27.07 27.06 27.19 27.07
6/4/2017 13:00 to 12:10 26.99 27.08 26.98 27.14 26.73 26.89
6/4/2017 12:00 to 11:10 26.89 26.94 26.85 26.56 27.00 26.96
6/4/2017 11:00 to 10:10 26.83 26.91 26.92 26.85 26.81 26.94
6/4/2017 10:00 to 9:10 26.93 26.97 26.91 26.97 27.03 26.86
6/4/2017 09:00 to 8:10 26.94 26.87 26.92 27.04 26.95 26.90
6/4/2017 08:00 to 7:10 27.00 26.93 26.99 27.01 27.00 27.13
6/4/2017 07:00 to 6:10 27.09 27.08 27.11 27.05 27.16 27.19
6/4/2017 06:00 to 5:10 27.17 27.27 27.22 27.29 27.30 27.29
6/4/2017 05:00 to 4:10 27.25 27.23 27.24 27.29 27.20 27.23
6/4/2017 04:00 to 3:10 27.33 27.23 27.30 27.22 27.36 27.21
6/4/2017 03:00 to 2:10 27.14 27.28 27.28 27.33 27.22 27.29
6/4/2017 02:00 to 1:10 27.14 27.37 27.21 27.21 27.37 27.41
6/4/2017 01:00 to 0:10 27.44 27.56 27.56 27.58 27.50 27.47
6/4/2017 00:00 to 23:10 -- -- -- -- -- --
6/3/2017 23:00 to 22:10 27.45 27.34 27.50 27.32 27.17 27.39
6/3/2017 22:00 to 21:10 27.28 27.41 27.38 27.51 27.51 27.54
6/3/2017 21:00 to 20:10 27.50 27.37 27.47 27.42 27.50 27.40
6/3/2017 20:00 to 19:10 27.32 27.47 27.59 27.39 27.48 27.28
6/3/2017 19:00 to 18:10 27.36 27.50 27.33 27.42 27.33 27.37
6/3/2017 18:00 to 17:10 27.40 27.42 27.49 27.35 27.32 27.28
6/3/2017 17:00 to 16:10 27.25 27.51 27.45 27.41 27.50 27.46
6/3/2017 16:00 to 15:10 27.64 27.55 27.36 27.65 27.35 27.25
6/3/2017 15:00 to 14:10 27.30 27.27 27.32 27.19 27.06 27.06
6/3/2017 14:00 to 13:10 27.24 27.08 27.11 27.14 27.18 27.01
6/3/2017 13:00 to 12:10 27.01 27.15 27.08 27.11 27.11 27.09
6/3/2017 12:00 to 11:10 27.13 27.14 27.25 27.07 27.06 27.11
6/3/2017 11:00 to 10:10 27.07 27.07 27.06 27.19 27.04 26.95
6/3/2017 10:00 to 9:10 26.91 26.97 27.08 26.99 27.05 26.99
6/3/2017 09:00 to 8:10 27.03 27.04 26.97 27.14 27.03 27.05
6/3/2017 08:00 to 7:10 -- -- -- -- -- --
6/3/2017 07:00 to 6:10 27.23 27.25 27.28 27.27 27.31 27.26
6/3/2017 06:00 to 5:10 27.25 27.15 27.27 27.20 27.27 27.17
6/3/2017 05:00 to 4:10 27.25 27.27 27.26 27.19 27.24 27.22
6/3/2017 04:00 to 3:10 27.24 27.27 27.17 27.18 27.26 27.28
6/3/2017 03:00 to 2:10 27.14 27.12 27.25 27.15 27.25 27.24
6/3/2017 02:00 to 1:10 27.26 27.27 27.26 27.21 27.19 27.26
6/3/2017 01:00 to 0:10 27.40 27.51 27.37 27.42 27.51 27.49
6/3/2017 00:00 to 23:10 27.46 27.36 27.39 27.42 27.55 27.44
6/2/2017 23:00 to 22:10 27.37 27.29 27.41 27.41 27.29 27.25
6/2/2017 22:00 to 21:10 27.33 27.24 27.33 27.28 27.28 27.34
6/2/2017 21:00 to 20:10 27.29 27.26 27.23 27.25 27.36 27.37
6/2/2017 20:00 to 19:10 27.26 27.26 27.21 27.29 27.36 27.32
6/2/2017 19:00 to 18:10 27.34 27.20 27.23 27.28 27.29 27.37
6/2/2017 18:00 to 17:10 27.28 27.31 27.24 27.28 27.20 27.37
6/2/2017 17:00 to 16:10 27.29 27.22 27.20 27.19 27.24 27.18
6/2/2017 16:00 to 15:10 27.14 27.29 27.17 27.19 27.06 27.20
6/2/2017 15:00 to 14:10 27.26 27.16 27.09 27.12 27.25 27.06
6/2/2017 14:00 to 13:10 26.96 26.95 26.99 26.92 26.84 26.80
6/2/2017 13:00 to 12:10 26.92 26.89 26.81 26.98 26.94 26.88
6/2/2017 12:00 to 11:10 -- -- -- -- -- --
6/2/2017 11:00 to 10:10 26.73 26.74 26.76 26.85 26.84 26.83
6/2/2017 10:00 to 9:10 26.80 26.85 27.04 26.86 26.90 26.86
6/2/2017 09:00 to 8:10 26.97 26.86 26.84 26.96 26.94 26.84
6/2/2017 08:00 to 7:10 26.99 27.05 27.03 27.05 27.10 27.05
6/2/2017 07:00 to 6:10 27.07 27.17 27.10 27.17 27.13 27.14
6/2/2017 06:00 to 5:10 27.10 27.20 27.25 27.23 27.17 27.23
6/2/2017 05:00 to 4:10 27.28 27.42 27.32 27.38 27.41 27.42
6/2/2017 04:00 to 3:10 27.30 27.17 27.17 27.22 27.25 27.32
6/2/2017 03:00 to 2:10 27.22 27.20 27.32 27.26 27.33 27.30
6/2/2017 02:00 to 1:10 27.31 27.29 27.31 27.32 27.35 27.38
6/2/2017 01:00 to 0:10 27.47 27.60 27.44 27.45 27.53 27.50